Location: Blackrock Ranger Station
(36.0936°N, 118.2611°W)
Time: 08:18:24
(UTC-07:00)

AO-7 - Pass Details

Date: 19 February 2026
Orbit: 1440 x 1458 km, 102.0° (Epoch: 15 March)

Event Time Altitude Azimuth Distance (km) Brightness Sun altitude
Rises 19:32:28 0° 223° (SW) 4,516 ? -23.7°
Reaches altitude 10° 19:38:53 10° 260° (W) 3,547 ? -25.0°
Maximum altitude 19:40:17 11° 270° (W) 3,512 ? -25.2°
Drops below altitude 10° 19:41:42 10° 280° (W) 3,552 ? -25.5°
Sets 19:48:13 0° 318° (NW) 4,542 ? -26.8°
